📊 Raw Sensor Data
Showing records 35126 to 35150 of 84,872 total
| ID | Distance (ft) | Battery V | Battery A | Int Temp (°F) | Int Humid (%) | Ext Temp (°F) | Solar V | RSSI | SNR | Time Stamp |
|---|---|---|---|---|---|---|---|---|---|---|
| 49759 | 14.9 | 3.80 | 0 | 109 | 51 | 101 | 5.10 | -70 | 9 | 08/20/2025 06:30 PM |
| 49758 | 14.9 | 3.80 | 0 | 111 | 50 | 104 | 5.10 | -70 | 8 | 08/20/2025 06:15 PM |
| 49757 | 14.9 | 3.80 | 0 | 111 | 49 | 102 | 5.10 | -70 | 8 | 08/20/2025 06:00 PM |
| 49756 | 14.9 | 3.80 | 0 | 111 | 49 | 102 | 5.10 | -70 | 9 | 08/20/2025 05:45 PM |
| 49755 | 14.9 | 3.80 | 0 | 112 | 48 | 102 | 5.10 | -69 | 9 | 08/20/2025 05:30 PM |
| 49754 | 14.9 | 4.07 | 0 | 112 | 47 | 102 | 5.10 | -69 | 8 | 08/20/2025 05:15 PM |
| 49753 | 14.9 | 3.80 | 0 | 113 | 46 | 103 | 5.10 | -71 | 8 | 08/20/2025 05:00 PM |
| 49752 | 14.8 | 3.81 | 0 | 112 | 45 | 103 | 5.10 | -70 | 8 | 08/20/2025 04:45 PM |
| 49751 | 14.8 | 4.06 | 0 | 112 | 44 | 104 | 5.20 | -69 | 8 | 08/20/2025 04:30 PM |
| 49750 | 14.9 | 3.80 | 0 | 111 | 43 | 102 | 5.10 | -70 | 8 | 08/20/2025 04:15 PM |
| 49749 | 14.8 | 3.80 | 0 | 109 | 43 | 99 | 5.10 | -69 | 5 | 08/20/2025 04:00 PM |
| 49748 | 14.8 | 3.80 | 0 | 108 | 43 | 96 | 5.10 | -68 | 7 | 08/20/2025 03:45 PM |
| 49747 | 14.8 | 3.80 | 0 | 108 | 43 | 96 | 5.10 | -70 | 8 | 08/20/2025 03:30 PM |
| 49746 | 14.7 | 3.80 | 0 | 106 | 43 | 97 | 5.10 | -68 | 8 | 08/20/2025 03:15 PM |
| 49745 | 14.8 | 3.80 | 0 | 106 | 42 | 96 | 5.20 | -68 | 7 | 08/20/2025 03:00 PM |
| 49744 | 14.8 | 4.08 | 0 | 105 | 42 | 96 | 5.10 | -70 | 8 | 08/20/2025 02:45 PM |
| 49743 | 14.7 | 3.80 | 0 | 103 | 42 | 93 | 5.10 | -69 | 8 | 08/20/2025 02:30 PM |
| 49742 | 14.7 | 3.80 | 0 | 102 | 42 | 92 | 5.10 | -69 | 8 | 08/20/2025 02:15 PM |
| 49741 | 14.6 | 3.80 | 0 | 100 | 42 | 91 | 5.10 | -68 | 7 | 08/20/2025 02:00 PM |
| 49740 | 14.7 | 3.80 | 0 | 99 | 42 | 91 | 5.10 | -68 | 8 | 08/20/2025 01:45 PM |
| 49739 | 14.7 | 3.80 | 0 | 97 | 42 | 91 | 5.10 | -68 | 8 | 08/20/2025 01:30 PM |
| 49738 | 14.7 | 3.80 | 0 | 96 | 43 | 90 | 5.10 | -69 | 8 | 08/20/2025 01:15 PM |
| 49737 | 14.7 | 4.04 | 0 | 95 | 43 | 88 | 5.10 | -69 | 8 | 08/20/2025 01:00 PM |
| 49736 | 14.7 | 3.91 | 0 | 94 | 42 | 88 | 5.10 | -69 | 7 | 08/20/2025 12:45 PM |
| 49735 | 14.7 | 3.84 | 0 | 93 | 42 | 88 | 5.10 | -69 | 8 | 08/20/2025 12:30 PM |